Temperature
16 16 16 15 15 15 15 16 16 16 16 16 16 16 15 15 15 15 15 15 15 15 15 15 15 15 15 15 15 15 15 15 15 15 15 15 15 15 15 15 15 15 15
15 15 15 15 15 15 15 15 15 15 15 15 15 15 15 15 15 15 15 15 15 15 15 15 15 15 15 15 15 15 15 15 15 15 15 15 15 15 15 15 15 15 15
15 15 15 15 15 15 15 15 15 15 15 15 15 15 15 15 15 15 15 15 15 15 15 15 14 14 14 14 14 14 14 15 14 15 14 15 15 15 15 15 15 15 15
15 15 15 15 15 15 15 15 15 15 15 15 15 15 15 15 15 15 15 15 15 14 14 14 14 14 14 14 14 14 14 14 14 14 14 14 14 14 14 14 15 15 15
15 15 15 15 15 15 15 15 14 14 14 14 14 15 15 15 15 14 14 14 14 14 14 14 14 14 14 14 14 14 14 14 14 14 14 14 14 14 14 14 14 14 14
15 15 15 14 14 14 14 14 14 14 14 14 14 14 15 15 14 14 14 14 14 14 14 14 14 14 14 14 14 14 14 14 14 14 14 14 14 14 14 14 14 14 14
14 14 14 14 14 14 14 14 14 14 14 14 14 14 14 14 14 14 14 14 14 14 14 13 13 13 13 13 13 13 14 14 14 14 14 14 14 14 14 14 14 14 14
14 14 14 14 14 14 14 14 14 13 13 13 14 14 14 14 14 14 14 14 14 13 13 13 13 13 13 13 13 13 13 14 14 13 13 13 13 13 13 13 13 13 13
14 14 14 14 14 14 14 13 13 13 13 13 13 14 14 14 14 14 14 14 14 13 13 13 13 13 13 13 13 13 13 13 13 13 13 13 13 13 13 13 13 13 13
14 14 14 14 14 13 13 13 13 13 13 13 13 13 13 13 13 13 13 13 13 13 13 13 13 13 12 13 13 13 13 13 13 13 13 13 13 13 13 13 13 13 13
14 14 14 14 13 13 13 13 13 13 13 13 13 13 13 13 13 13 13 13 13 13 13 13 12 12 12 12 13 13 13 13 13 13 13 13 13 13 13 13 12 12 12
14 14 14 14 13 13 13 13 13 13 13 13 13 13 13 13 13 13 13 13 13 13 13 13 12 12 12 12 13 13 13 13 13 13 13 13 13 13 13 12 12 12 12
14 14 14 14 13 13 13 13 13 13 13 13 13 13 13 13 13 13 13 13 12 12 12 12 12 12 12 12 12 12 12 12 13 13 13 13 13 13 12 12 12 12 12
14 14 13 13 13 13 13 13 13 13 13 13 13 13 13 13 12 13 13 12 12 12 12 12 12 12 12 12 12 12 12 12 12 12 12 12 12 12 12 12 12 12 12
13 13 13 13 13 13 13 13 13 13 12 12 12 13 12 12 12 12 12 12 12 12 12 12 12 12 12 12 12 12 12 12 12 12 12 12 12 12 12 12 12 12 12
13 13 13 13 13 13 13 12 12 12 12 12 12 12 12 12 12 12 12 12 12 12 11 11 11 11 11 11 12 12 12 12 12 12 12 12 12 12 12 12 12 12 12
13 13 13 13 13 12 12 12 12 12 12 12 12 12 12 12 12 12 12 12 12 11 11 11 11 11 11 11 11 11 11 11 11 11 11 11 11 11 11 12 12 12 11
13 13 12 12 12 12 12 12 12 12 12 12 12 12 12 12 12 11 11 11 11 11 11 11 11 11 11 11 11 11 11 11 11 11 11 11 11 11 11 11 11 11 11
12 12 12 12 12 12 12 12 12 12 12 11 11 11 11 11 11 11 11 11 11 11 11 11 10 10 10 10 10 11 10 10 10 10 10 10 10 10 11 11 11 11 11
12 12 12 12 12 12 12 12 11 11 11 11 11 11 11 11 11 11 11 11 11 11 10 10 10 10 10 10 10 10 10 10 10 10 10 10 10 10 10 10 10 10 10
12 12 11 12 11 11 11 11 11 11 11 11 11 11 11 11 11 11 11 11 10 10 10 10 10 10 10 10 10 10 10 10 10 10 10 9 9 10 10 10 10 10 10
11 11 11 11 11 11 11 11 11 11 11 11 10 10 10 10 10 10 10 10 10 10 10 10 10 10 10 10 10 10 10 9 9 9 9 9 9 9 9 9 9 9 9
11 11 11 11 11 11 11 11 11 10 10 10 10 10 10 10 10 10 10 10 10 10 10 10 10 10 9 9 9 9 9 9 9 9 9 9 9 8 9 9 9 9 9
10 10 10 10 10 10 10 10 10 10 10 10 10 10 10 10 10 10 10 9 9 9 9 9 9 9 9 9 9 9 9 9 8 8 8 8 8 8 8 8 8 8 8
10 10 10 10 10 10 10 10 10 10 10 9 9 9 9 9 9 9 9 9 9 9 9 9 9 9 9 8 8 8 8 8 8 8 8 7 7 7 7 7 7 7 8
10 10 9 9 9 10 10 9 9 9 9 9 9 9 9 9 9 9 9 9 9 9 8 8 8 8 8 8 8 8 8 7 7 7 7 7 7 7 7 7 7 7 7
Wind_Speed
2 3 3 3 3 3 3 3 3 5 5 5 6 6 5 5 7 8 8 9 9 8 9 10 10 11 11 11 11 11 10 9 9 9 9 9 9 9 9 8 8 7 7
3 3 3 3 3 4 4 3 4 4 4 4 5 5 4 4 6 7 8 8 9 8 8 9 10 11 12 11 12 11 11 10 10 9 9 9 8 8 8 8 8 8 7
4 3 3 3 3 4 4 4 5 4 3 4 4 4 4 4 4 5 7 7 8 8 9 9 10 10 11 11 11 11 10 10 10 10 9 9 9 9 9 9 9 8 8
6 5 3 3 4 5 4 3 3 4 4 3 3 3 3 3 3 3 4 6 7 7 7 8 8 9 9 9 9 9 9 10 10 10 9 9 9 9 9 9 8 8 8
6 5 3 2 4 4 3 3 4 3 3 3 2 2 1 2 2 2 3 5 6 8 8 8 7 7 7 7 8 9 9 9 9 9 9 9 9 9 9 9 9 8 8
5 4 2 3 4 3 3 3 3 3 2 2 2 2 1 1 1 3 3 4 5 6 6 6 7 6 6 6 7 8 7 7 8 8 8 8 9 9 9 8 8 8 8
5 4 2 3 3 2 2 2 2 3 2 2 2 2 2 2 2 2 2 3 3 4 4 4 5 6 5 5 5 6 7 7 7 7 7 7 8 8 8 8 7 7 7
3 2 2 2 2 2 2 3 3 2 2 2 1 1 1 2 3 1 2 1 2 2 3 4 4 5 6 6 5 5 6 6 6 6 6 6 7 7 7 7 7 7 6
2 2 1 2 1 1 1 1 2 2 1 2 2 1 1 0 2 2 0 1 1 1 1 3 4 5 6 7 6 5 5 4 5 5 4 5 5 6 6 6 6 6 5
1 1 1 1 1 1 1 0 2 1 0 1 2 1 0 1 1 1 2 1 1 1 2 2 4 5 6 7 6 5 4 3 4 4 4 4 4 4 4 5 5 6 5
1 1 0 0 1 1 1 0 1 0 0 0 1 1 1 1 1 1 1 2 2 0 1 2 2 3 5 5 5 4 3 2 2 4 4 4 4 4 3 4 4 4 5
1 2 1 1 1 1 1 1 1 0 1 1 1 1 0 1 2 1 0 1 1 1 1 1 2 2 3 4 4 4 2 1 2 3 4 4 3 4 3 3 3 3 3
2 2 2 2 1 1 1 1 1 1 1 1 1 1 1 1 1 1 1 1 1 1 0 0 1 2 3 4 3 3 2 1 2 3 3 4 4 3 3 3 3 3 3
3 3 3 2 2 2 1 1 1 1 1 1 1 0 0 1 1 1 0 1 2 2 1 1 0 2 2 3 2 1 1 1 1 2 2 3 3 4 3 3 3 3 3
2 3 3 3 2 2 2 2 1 2 1 1 1 2 1 1 0 1 1 0 1 1 2 1 1 0 2 3 1 1 1 1 1 1 2 2 3 3 3 3 3 4 3
2 2 2 3 3 2 2 2 1 1 1 1 1 0 0 0 0 0 0 1 0 2 2 2 1 1 0 0 1 0 1 1 2 2 2 2 2 2 3 3 3 4 3
2 3 3 3 3 3 3 2 2 2 2 2 2 1 2 1 1 1 1 1 1 1 2 2 1 1 1 1 1 1 2 2 2 3 3 2 2 2 2 2 3 3 3
2 2 3 2 3 3 3 3 3 3 3 2 2 2 3 2 2 2 1 2 2 2 2 2 2 1 2 2 1 2 2 2 2 3 3 3 2 2 2 2 2 2 2
2 2 3 3 3 3 3 3 4 4 3 3 3 2 3 3 3 2 3 3 2 2 2 2 2 2 2 2 1 2 2 1 2 3 3 3 2 1 1 1 1 1 1
2 3 2 2 2 2 2 3 3 3 3 3 3 2 3 2 3 3 3 3 2 2 2 2 2 2 2 2 1 2 2 1 2 1 0 1 2 2 1 1 0 1 1
3 2 2 2 2 2 2 2 2 2 2 3 2 2 2 2 1 1 2 2 2 2 2 2 2 2 2 1 2 2 2 2 2 1 1 1 1 1 1 1 1 1 1
2 2 2 2 2 2 1 1 1 2 2 3 3 3 3 3 3 3 3 2 2 3 3 2 2 3 3 2 2 2 1 1 3 2 0 2 0 0 1 1 2 3 3
2 2 2 2 2 1 2 1 2 3 3 3 3 3 3 3 3 2 3 4 3 4 5 3 3 3 3 2 2 2 2 2 3 2 0 2 1 1 1 1 2 3 3
2 2 2 2 1 1 1 1 3 3 3 4 4 4 4 4 3 2 3 3 3 3 3 3 3 3 3 2 2 3 3 2 1 1 0 2 2 2 1 1 3 3 2
2 3 2 2 2 2 2 2 2 3 3 4 4 2 2 2 3 2 2 3 2 2 2 3 3 4 4 5 4 2 1 1 2 2 1 1 2 2 2 1 1 2 3
2 2 2 2 3 2 3 3 2 2 4 3 3 2 2 2 2 2 2 2 3 2 2 2 3 4 4 4 4 3 2 2 2 2 1 1 2 1 2 2 1 2 2
Wind_Direction
66 80 77 79 69 65 49 22 39 45 43 50 58 61 63 80 95 98 95 97 90 82 76 70 61 56 57 60 63 61 58 58 58 61 59 56 55 54 53 51 46 46 46
66 75 73 65 62 52 44 44 52 54 47 47 49 54 56 64 91 106 106 100 94 88 84 74 67 61 62 63 63 60 57 57 57 57 59 56 54 52 48 44 41 42 43
66 70 74 68 69 65 50 41 44 47 54 52 46 45 48 45 70 100 110 112 106 93 85 79 72 66 64 63 60 57 56 60 58 56 57 54 52 49 47 44 41 43 44
64 67 63 52 52 61 57 41 43 43 41 41 36 32 40 34 41 82 108 119 123 115 103 92 82 73 65 60 58 55 54 60 58 57 54 51 49 47 45 42 41 43 43
67 71 69 60 61 60 50 42 46 43 39 32 26 37 34 35 6 42 75 98 111 121 123 118 103 87 73 63 58 53 53 57 55 54 51 48 47 44 43 43 43 44 44
62 66 71 65 69 63 50 57 63 45 40 18 12 20 10 30 36 38 45 61 79 97 111 128 133 114 91 76 66 57 52 51 48 49 49 49 47 44 43 42 44 45 45
68 64 57 55 67 69 55 62 84 61 26 16 29 4 350 10 58 73 65 55 59 80 90 101 119 127 116 93 75 60 51 49 45 43 46 47 45 42 40 40 42 44 44
79 77 77 72 76 67 50 47 56 57 359 3 22 21 3 1 350 45 78 86 62 70 65 65 74 92 107 108 94 66 51 43 41 40 40 39 37 36 36 38 40 40 39
108 110 94 106 126 121 114 96 89 73 4 334 26 53 56 320 311 337 16 94 68 42 66 74 63 69 87 93 88 74 59 47 39 36 34 33 34 34 35 33 37 36 36
94 107 97 119 142 114 112 179 104 102 69 319 327 343 25 124 111 325 325 12 77 75 65 60 66 64 79 86 86 81 77 60 42 30 30 27 26 28 32 33 35 35 35
147 161 214 129 137 137 158 114 63 15 226 246 306 322 330 336 285 162 285 321 340 356 97 76 82 77 86 88 88 80 96 70 42 21 18 14 15 13 19 22 23 27 28
174 192 192 169 170 165 175 174 185 244 315 331 313 302 309 334 306 342 299 303 287 281 105 97 101 98 104 92 78 64 76 67 36 16 5 3 8 7 7 3 2 9 11
186 212 199 188 182 168 170 157 193 201 230 229 269 300 353 320 319 352 25 336 312 292 352 54 111 108 104 106 85 65 81 76 40 13 2 359 357 359 356 352 350 352 357
190 198 199 200 184 177 189 160 187 221 229 204 253 219 217 306 349 10 70 23 337 331 348 293 58 118 102 112 84 95 149 157 66 350 344 343 344 347 350 350 348 341 339
205 192 197 193 193 186 193 186 194 220 231 223 230 227 190 194 149 348 15 122 147 304 303 290 341 276 123 124 127 146 183 203 213 282 313 326 329 334 336 347 348 341 333
213 183 195 196 189 187 193 202 198 228 219 223 216 230 223 208 181 126 39 306 159 181 251 283 280 281 220 136 241 256 231 192 221 229 255 288 307 325 336 346 342 339 331
208 196 206 206 197 196 200 201 203 201 223 228 218 208 231 224 209 223 212 251 270 195 231 285 293 289 327 321 317 278 236 192 205 218 219 254 281 308 326 330 334 331 325
227 209 208 208 210 209 205 204 207 206 217 226 236 226 223 222 222 226 217 224 239 235 210 249 275 287 288 278 274 271 258 230 227 217 217 238 248 272 306 318 330 330 331
257 247 225 212 219 218 213 213 211 202 203 216 229 243 239 217 222 217 219 223 234 248 222 214 250 258 273 274 289 291 271 266 253 220 216 235 230 242 283 293 311 327 331
239 254 247 220 225 230 226 229 227 213 208 215 220 245 256 226 224 223 228 227 233 240 241 218 238 251 261 263 247 269 290 286 291 266 324 261 241 228 226 219 243 307 302
233 231 237 228 230 234 241 237 241 232 223 233 235 238 257 255 240 249 251 231 233 232 233 228 235 257 265 264 255 258 266 279 294 281 334 285 184 166 188 248 239 256 272
238 235 238 229 232 262 271 267 271 244 231 232 242 239 240 241 252 250 257 253 231 226 228 225 231 237 246 253 263 271 270 285 296 293 337 293 161 301 192 197 225 237 247
248 244 249 241 229 230 249 257 280 263 249 240 243 242 255 251 243 232 245 243 243 243 227 223 239 241 240 253 253 267 263 251 258 252 217 286 288 278 256 239 222 220 239
240 250 251 238 222 263 273 267 265 258 257 247 240 231 232 232 238 228 228 233 234 247 241 233 229 246 249 244 241 247 247 264 282 295 137 274 289 285 301 203 224 219 244
239 232 237 221 213 233 240 243 244 240 246 252 248 248 260 248 246 231 230 231 235 266 283 259 258 263 270 266 261 277 284 268 282 268 258 257 278 297 292 268 234 244 252
245 238 232 228 218 225 228 222 228 243 246 248 241 224 233 251 248 227 228 223 224 247 253 285 290 287 271 262 252 228 220 234 261 269 240 216 263 288 294 281 252 266 281
Height
1533 1533 1533 1533 1534 1534 1533 1533 1533 1533 1533 1534 1534 1534 1534 1534 1533 1533 1533 1533 1533 1532 1532 1531 1529 1527 1524 1523 1524 1525 1525 1526 1525 1525 1526 1526 1527 1527 1527 1527 1527 1527 1527
1534 1534 1534 1534 1534 1534 1534 1534 1534 1534 1534 1534 1534 1535 1535 1535 1534 1534 1534 1534 1533 1532 1532 1531 1530 1529 1526 1525 1526 1526 1526 1526 1526 1526 1526 1527 1527 1527 1527 1527 1527 1527 1527
1534 1534 1534 1534 1535 1535 1535 1535 1535 1535 1535 1535 1535 1535 1535 1535 1535 1535 1535 1534 1534 1533 1533 1532 1531 1531 1530 1529 1528 1528 1527 1527 1527 1526 1527 1527 1527 1527 1527 1527 1527 1527 1527
1534 1534 1534 1535 1535 1535 1535 1535 1535 1535 1535 1535 1535 1536 1536 1536 1536 1536 1535 1535 1534 1534 1534 1533 1533 1532 1531 1531 1530 1529 1528 1528 1528 1528 1528 1528 1528 1528 1527 1527 1527 1527 1527
1534 1534 1534 1535 1535 1535 1535 1536 1535 1536 1535 1535 1536 1536 1536 1536 1536 1537 1536 1536 1536 1535 1535 1534 1534 1533 1533 1532 1531 1531 1530 1530 1529 1529 1529 1528 1528 1528 1527 1527 1527 1527 1527
1534 1534 1534 1535 1535 1535 1536 1536 1536 1536 1536 1536 1536 1536 1536 1536 1536 1537 1537 1537 1536 1536 1535 1535 1534 1534 1533 1533 1532 1532 1531 1531 1530 1530 1529 1529 1529 1528 1528 1527 1527 1527 1527
1534 1534 1534 1535 1535 1535 1536 1536 1536 1536 1536 1536 1536 1536 1536 1536 1536 1536 1537 1536 1536 1536 1536 1535 1535 1535 1534 1533 1533 1532 1532 1531 1531 1530 1530 1530 1529 1529 1528 1527 1527 1527 1527
1533 1533 1534 1534 1535 1535 1535 1536 1536 1536 1536 1536 1536 1536 1536 1537 1536 1536 1537 1536 1536 1536 1536 1536 1536 1535 1534 1533 1533 1532 1532 1532 1531 1531 1530 1530 1529 1529 1528 1528 1527 1527 1527
1533 1533 1534 1534 1534 1535 1535 1535 1535 1535 1536 1536 1536 1537 1537 1537 1536 1536 1537 1536 1536 1536 1536 1535 1535 1535 1534 1533 1532 1532 1532 1531 1531 1531 1530 1530 1529 1529 1528 1528 1527 1527 1527
1532 1533 1533 1533 1534 1534 1534 1534 1534 1535 1535 1536 1536 1536 1537 1537 1537 1536 1537 1536 1536 1535 1535 1535 1535 1534 1534 1533 1532 1532 1532 1531 1531 1530 1530 1529 1529 1529 1528 1527 1527 1526 1526
1531 1532 1532 1533 1533 1533 1533 1533 1533 1534 1534 1535 1535 1535 1536 1536 1536 1536 1536 1536 1535 1535 1534 1534 1534 1534 1533 1532 1532 1531 1531 1530 1530 1530 1529 1529 1528 1528 1527 1527 1526 1526 1526
1530 1530 1531 1531 1532 1532 1532 1532 1532 1532 1533 1533 1534 1534 1535 1535 1535 1535 1535 1534 1534 1534 1533 1533 1533 1533 1532 1531 1531 1531 1530 1530 1529 1529 1528 1528 1527 1527 1527 1526 1526 1525 1525
1528 1529 1529 1530 1530 1531 1531 1531 1531 1531 1531 1531 1532 1532 1533 1533 1534 1534 1534 1534 1533 1532 1532 1532 1532 1532 1531 1531 1530 1530 1529 1529 1528 1528 1527 1527 1526 1526 1526 1525 1525 1524 1524
1527 1527 1528 1528 1529 1529 1529 1529 1529 1529 1530 1530 1530 1531 1531 1531 1532 1532 1532 1533 1532 1531 1531 1531 1531 1531 1530 1530 1530 1529 1528 1528 1527 1527 1526 1525 1525 1525 1524 1524 1523 1523 1522
1525 1525 1526 1526 1527 1527 1527 1528 1528 1528 1528 1528 1528 1529 1529 1529 1530 1530 1531 1531 1531 1530 1530 1530 1530 1529 1529 1529 1528 1528 1527 1526 1526 1526 1525 1524 1524 1523 1523 1522 1521 1521 1521
1523 1523 1524 1524 1524 1525 1525 1525 1525 1526 1526 1526 1526 1527 1527 1527 1528 1528 1529 1529 1529 1529 1528 1528 1528 1528 1528 1527 1527 1526 1525 1525 1524 1524 1523 1523 1522 1521 1521 1520 1519 1519 1519
1521 1521 1521 1522 1522 1522 1523 1523 1523 1524 1524 1524 1524 1525 1525 1525 1525 1526 1526 1526 1526 1527 1526 1526 1526 1526 1526 1525 1525 1524 1524 1523 1522 1522 1521 1521 1520 1519 1519 1518 1517 1517 1516
1518 1518 1519 1519 1519 1520 1520 1520 1521 1521 1521 1521 1522 1522 1523 1523 1523 1523 1523 1523 1524 1524 1524 1523 1524 1524 1523 1523 1523 1522 1522 1521 1520 1520 1519 1519 1518 1517 1516 1516 1515 1514 1514
1515 1515 1516 1516 1516 1517 1517 1518 1518 1518 1518 1519 1519 1519 1520 1520 1520 1520 1520 1521 1521 1521 1522 1521 1521 1521 1521 1521 1520 1520 1520 1519 1518 1518 1517 1516 1516 1515 1514 1513 1513 1512 1512
1512 1512 1512 1513 1513 1514 1514 1515 1515 1515 1515 1515 1516 1516 1517 1517 1517 1517 1517 1518 1518 1518 1519 1518 1518 1518 1518 1518 1518 1517 1516 1517 1516 1516 1515 1514 1513 1513 1512 1511 1511 1510 1510
1508 1509 1509 1509 1510 1510 1511 1511 1512 1512 1512 1512 1512 1513 1513 1514 1514 1514 1514 1514 1515 1515 1515 1515 1515 1515 1515 1515 1515 1514 1514 1513 1513 1513 1512 1511 1511 1510 1510 1509 1509 1508 1508
1505 1505 1506 1506 1506 1507 1507 1507 1508 1508 1508 1508 1509 1509 1509 1509 1510 1510 1511 1511 1511 1511 1511 1511 1511 1511 1511 1511 1511 1511 1511 1510 1509 1510 1509 1508 1508 1507 1507 1506 1506 1506 1505
1501 1501 1502 1502 1502 1503 1504 1504 1504 1504 1504 1504 1505 1505 1505 1505 1506 1506 1506 1507 1507 1507 1508 1508 1508 1507 1508 1508 1508 1507 1507 1507 1506 1506 1506 1505 1505 1504 1504 1503 1503 1503 1502
1498 1498 1498 1499 1499 1499 1499 1499 1500 1500 1500 1500 1501 1501 1501 1501 1501 1502 1502 1502 1503 1503 1503 1504 1504 1504 1504 1504 1504 1504 1504 1503 1503 1503 1503 1502 1501 1500 1500 1500 1500 1500 1499
1494 1495 1495 1495 1495 1495 1495 1495 1495 1495 1495 1496 1496 1497 1497 1497 1498 1498 1498 1498 1498 1499 1499 1500 1500 1500 1500 1500 1501 1501 1500 1499 1498 1498 1499 1499 1497 1497 1497 1497 1497 1497 1496
1491 1491 1491 1491 1491 1491 1491 1491 1491 1491 1491 1491 1492 1492 1493 1493 1493 1494 1494 1494 1494 1494 1495 1495 1495 1496 1496 1496 1496 1496 1496 1495 1494 1494 1495 1495 1494 1494 1493 1493 1494 1494 1493